Regional Weather Roundup
Issued by NWS

Home | Current Version | Previous Version | Graphics & Text | Print | Product List | Glossary On
Versions: 1 2 3 4 5 6 7 8 9 10 11 12 13 14 15 16 17 18 19 20 21 22 23 24 25 26 27 28
000
ASUS45 KBOU 240710
RWRCO

WEATHER ROUNDUP FOR COLORADO
NATIONAL WEATHER SERVICE DENVER/BOULDER CO
1200 AM MST FRI NOV 24 2017

NOTE: "FAIR" INDICATES FEW OR NO CLOUDS BELOW 12000 FEET WITH NO
SIGNIFICANT WEATHER AND/OR OBSTRUCTIONS TO VISIBILITY.

COZ001>005-013-030-031-240800-
...NORTHWEST COLORADO...

CITY           SKY/WX    TMP DP  RH WIND       PRES   REMARKS
CRAIG          MOCLDY    32  29  88 CALM      30.13F
HAYDEN         FAIR      37  32  82 E7        30.15F
MEEKER         FAIR      34  29  82 NE6       30.15S WCI  29
RABBIT EARS PA FAIR      32  30  93 W9G16     30.26F WCI  24
STEAMBOAT SPGS FAIR      32  32  99 CALM      30.15F
WALDEN         MOCLDY    43  25  49 S10G18    30.15F
$$

COZ006>008-011-240800-
...WEST CENTRAL VALLEYS...

CITY           SKY/WX    TMP DP  RH WIND       PRES   REMARKS
GRAND JUNCTION FAIR      44  34  67 E5        30.14F
MONTROSE       FAIR      36  28  73 S8        30.20F
EAGLE          FAIR      30  27  88 CALM      30.21F
RIFLE          FAIR      36  33  89 CALM      30.17F
DELTA          FAIR      40  30  68 CALM      30.17F
NUCLA          FAIR      39  23  52 E3        30.23S
$$

COZ017>023-064>068-240800-
...SOUTHWEST COLORADO...

CITY           SKY/WX    TMP DP  RH WIND       PRES   REMARKS
DURANGO        FAIR      31  24  75 CALM      30.22F
CORTEZ         FAIR      28  23  81 E6        30.22S WCI  22
PAGOSA SPRINGS FAIR      32  24  73 CALM      30.27F
TELLURIDE      FAIR      41  15  35 SE7       30.33F
WOLF CREEK PAS FAIR      32  21  64 SW9       30.47F WCI  24
$$

COZ009-010-012-014-032>034-037-058>063-240800-
...CENTRAL COLORADO...

CITY           SKY/WX    TMP DP  RH WIND       PRES   REMARKS
ASPEN          FAIR      29  24  82 S6        30.21F WCI  23
BUENA VISTA    FAIR      35  20  55 CALM      30.14F
COPPER MTN     NOT AVBL
BERTHOUD PASS  FAIR      27  16  63 NW31G39   30.29S WCI  10
COTTONWOOD PAS FAIR      50  10  20 NW8G23    30.19F
GUNNISON       FAIR      23  22  96 CALM      30.27S
KREMMLING      FAIR      32  30  93 CALM      30.19F
LEADVILLE      FAIR      39  10  30 N12       30.25F
MONARCH PASS   FAIR      32  21  64 W43       30.43F WCI  15
SALIDA         FAIR      44  23  42 N3        30.19F
SUNLIGHT       FAIR      32  18  55 SW13G22   30.35F WCI  22
WILKERSON PASS FAIR      37   5  25 W18G36    30.24F
$$

COZ069>075-240800-
...SAN LUIS VALLEY/SANGRE DE CRISTO MOUNTAINS...

CITY           SKY/WX    TMP DP  RH WIND       PRES   REMARKS
ALAMOSA        FAIR      22  17  81 CALM      30.21F
DEL NORTE      FAIR      37  17  45 W12       30.22F
LA VETA PASS   FAIR      37  25  60 MISG        N/A
SAGUACHE       FAIR      30  19  64 NW9       30.22F WCI  22
$$

COZ035-036-038>040-240800-
...NORTHERN COLORADO FRONT RANGE...

CITY           SKY/WX    TMP DP  RH WIND       PRES   REMARKS
DENVER INTL AP FAIR      54  21  27 SW8       29.90F
DMNS CITY PARK   N/A     60  17  18 SE7       29.91F
AURORA         PTCLDY    58  18  21 S6        29.92F
FRONT RANGE AP FAIR      58  22  25 SW16      29.91F
ERIE MUNI ARPT FAIR      42  27  55 CALM      29.93F
BOULDER MUN AP FAIR      59  27  29 E6        29.88S
CENTENNIAL     FAIR      47  22  37 SW7       29.94F
BROOMFIELD     FAIR      64  21  19 W20G29    29.91F
FORT COLLINS   FAIR      47  32  56 VRB5      29.86F
LONGMONT       FAIR      64  26  24 W10G24    29.88F
$$

COZ041-046-047-076>085-087-088-240800-
...PIKES PEAK/PALMER DIVIDE AND SOUTHERN FOOTHILLS...

CITY           SKY/WX    TMP DP  RH WIND       PRES   REMARKS
COLO. SPRINGS  MOCLDY    55  26  32 CALM      29.98F
A. F. ACADEMY  FAIR      60  11  14 W12G18    29.99F
SCHRIEVER AFB  FAIR      55  18  23 NW7       29.98F
CHEYENNE MTN   FAIR      56  15  19 CALM      29.96F
ELLICOTT         N/A    N/A N/A N/A N3        29.96F
FALCON         FAIR      55  11  18 W16       30.02F
FORT CARSON    FAIR      46  28  49 NW9       29.95F
LIMON          FAIR      36  29  75 NW5       29.92F
MONUMENT HILL  FAIR      46  18  31 W10       30.03F
CANON CITY     FAIR      57  23  26 NW6       29.97F
WALSENBURG     FAIR      63  18  17 W23G29    30.02S
TRINIDAD       FAIR      51  26  37 W12       30.01F
$$

COZ042>045-048>051-090-091-240800-
...NORTHEAST COLORADO...

CITY           SKY/WX    TMP DP  RH WIND       PRES   REMARKS
GREELEY ARPT   NOT AVBL
AKRON          FAIR      48  28  46 SW12      29.85F
BURLINGTON     FAIR      45  34  65 SW7       29.86F
WRAY           NOT AVBL
YUMA           FAIR      41  30  65 W9        29.83F
STERLING       FAIR      39  30  70 SW9       29.82F
HOLYOKE        FAIR      41  30  65 W9        29.81F
FORT MORGAN    FAIR      44  26  49 W8        29.87S
$$

COZ086-089-092>099-240800-
...SOUTHEAST COLORADO...

CITY           SKY/WX    TMP DP  RH WIND       PRES   REMARKS
PUEBLO         FAIR      63  23  21 W16       29.90F
LA JUNTA       FAIR      50  29  44 SW6       29.88F
LAMAR          FAIR      38  30  73 SW9       29.86F
SPRINGFIELD      N/A     42  32  67 W8        29.90F
$$




USA.gov is the U.S. government's official web portal to all federal, state and local government web resources and services.